Weather History for Cherokee, IA

Change the Weather History Date:

Thursday, March 6, 2014

  Actual Average Record
Temperature  
Mean Temperature 28 °F -  
Max Temperature 36 °F 39 °F 71 °F (1991)
Min Temperature 20 °F 17 °F -12 °F (1962)
Degree Days  
Heating Degree Days 37    
Moisture  
Dew Point 25 °F    
Average Humidity 89    
Maximum Humidity 96    
Minimum Humidity 80    
Precipitation  
Precipitation 0.00 in - - ()
Sea Level Pressure  
Sea Level Pressure 30.01 in    
Wind  
Wind Speed 13 mph (South)    
Max Wind Speed 22 mph    
Max Gust Speed 28 mph    
Visibility 5 miles    
Events      
Averages and records for this station are not official NWS values.
T = Trace of Precipitation, MM = Missing Value Source: NWS Daily Summary

Daily Weather History Graph

Daily Weather History Graph

Search for Another Location

Airport:

Trip Planner

Search our weather history database for the weather conditions in past years. The results will help you decide how hot, cold, wet, or windy it might be!

Date:

Astronomy

Mar. 06, 2014 Rise Set
Actual Time 6:49 AM CST 6:17 PM CST
Civil Twilight 6:21 AM CST 6:46 PM CST
Nautical Twilight 5:48 AM CST 7:18 PM CST
Astronomical Twilight 5:15 AM CST 7:51 PM CST
Moon 9:50 AM CST (3/6) No Moon Set
Length of Visible Light 12h 24m
Length of Day
11h 28m
Waxing Crescent, 32% of the Moon is Illuminated
Mar 6
Waxing Crescent
Mar 8
First Quarter
Mar 16
Full
Mar 23
Last Quarter
Mar 30
New

Hourly Weather History & Observations

Time (CST) Temp. Windchill Dew Point Humidity Pressure Visibility Wind Dir Wind Speed Gust Speed Precip Events Conditions
12:15 AM 20.3 °F 8.3 °F 18.3 °F 92% 30.28 in 7.0 mi South 11.5 mph - N/A   Overcast
12:35 AM 20.3 °F 9.0 °F 18.5 °F 93% 30.28 in 5.0 mi South 10.4 mph - N/A   Overcast
12:55 AM 20.5 °F 8.0 °F 18.5 °F 92% 30.27 in 5.0 mi South 12.7 mph 16.1 mph N/A   Overcast
1:15 AM 20.7 °F 10.2 °F 18.7 °F 92% 30.27 in 5.0 mi South 9.2 mph - N/A   Overcast
1:35 AM 20.8 °F 9.7 °F 18.7 °F 91% 30.26 in 5.0 mi South 10.4 mph - N/A   Overcast
1:55 AM 20.8 °F 10.4 °F 19.0 °F 93% 30.26 in 5.0 mi South 9.2 mph - N/A   Overcast
2:15 AM 21.0 °F 8.6 °F 19.2 °F 93% 30.24 in 5.0 mi South 12.7 mph - N/A   Overcast
2:35 AM 21.0 °F 9.9 °F 19.4 °F 93% 30.23 in 5.0 mi South 10.4 mph - N/A   Overcast
2:55 AM 21.2 °F 10.1 °F 19.4 °F 93% 30.22 in 5.0 mi South 10.4 mph - N/A   Overcast
3:15 AM 21.0 °F 8.6 °F 19.4 °F 93% 30.20 in 5.0 mi South 12.7 mph - N/A   Overcast
3:35 AM 21.2 °F 9.5 °F 19.6 °F 93% 30.22 in 5.0 mi South 11.5 mph - N/A   Overcast
3:55 AM 21.2 °F 8.9 °F 19.8 °F 94% 30.20 in 5.0 mi South 12.7 mph 17.3 mph N/A   Overcast
4:15 AM 21.2 °F 9.5 °F 19.6 °F 93% 30.19 in 4.0 mi South 11.5 mph 18.4 mph N/A   Overcast
4:35 AM 21.2 °F - 19.8 °F 94% 30.19 in 4.0 mi Calm Calm - N/A   Overcast
4:55 AM 21.2 °F 8.3 °F 19.9 °F 95% 30.18 in 3.0 mi South 13.8 mph 17.3 mph N/A   Overcast
5:15 AM 21.2 °F 9.5 °F 20.1 °F 96% 30.18 in 3.0 mi South 11.5 mph - N/A   Overcast
5:35 AM 21.7 °F 9.0 °F 20.7 °F 96% 30.18 in 4.0 mi South 13.8 mph 18.4 mph N/A   Overcast
5:55 AM 22.1 °F 11.3 °F 21.2 °F 96% 30.18 in 4.0 mi South 10.4 mph - N/A   Overcast
6:15 AM 22.6 °F 10.7 °F 21.4 °F 95% 30.16 in 4.0 mi South 12.7 mph - N/A   Overcast
6:35 AM 22.6 °F 11.3 °F 21.2 °F 94% 30.15 in 4.0 mi South 11.5 mph - N/A   Overcast
6:55 AM 22.8 °F 10.4 °F 21.6 °F 95% 30.14 in 4.0 mi South 13.8 mph - N/A   Overcast
7:15 AM 22.6 °F 11.3 °F 21.2 °F 94% 30.14 in 3.0 mi South 11.5 mph - N/A   Overcast
7:35 AM 22.8 °F 12.2 °F 21.2 °F 93% 30.14 in 3.0 mi South 10.4 mph - N/A   Overcast
7:55 AM 23.0 °F 11.1 °F 21.7 °F 95% 30.13 in 3.0 mi South 12.7 mph 17.3 mph N/A   Overcast
8:15 AM 23.5 °F 10.8 °F 22.1 °F 94% 30.11 in 3.0 mi South 15.0 mph - N/A   Overcast
8:35 AM 23.9 °F 10.8 °F 22.1 °F 93% 30.12 in 3.0 mi South 16.1 mph 21.9 mph N/A   Overcast
8:50 AM 24.1 °F 11.0 °F 22.3 °F 93% 30.11 in 3.0 mi South 16.1 mph 21.9 mph N/A   Overcast
9:15 AM 24.8 °F 11.1 °F 22.8 °F 92% 30.11 in 3.0 mi South 18.4 mph 21.9 mph N/A   Overcast
9:30 AM 25.0 °F 12.2 °F 23.0 °F 92% 30.11 in 3.0 mi South 16.1 mph - N/A   Overcast
9:55 AM 25.3 °F 13.1 °F 22.8 °F 90% 30.10 in 2.5 mi South 15.0 mph - N/A   Overcast
10:15 AM 25.9 °F 12.5 °F 23.4 °F 90% 30.09 in 2.5 mi South 18.4 mph - N/A   Overcast
10:35 AM 26.2 °F 12.2 °F 23.5 °F 90% 30.08 in 2.5 mi South 20.7 mph 25.3 mph N/A   Overcast
10:55 AM 26.4 °F 12.8 °F 23.7 °F 90% 30.06 in 2.5 mi South 19.6 mph 24.2 mph N/A   Overcast
11:15 AM 27.0 °F 12.8 °F 23.9 °F 88% 30.04 in 3.0 mi South 21.9 mph 27.6 mph N/A   Overcast
11:35 AM 27.5 °F 14.2 °F 24.4 °F 88% 30.04 in 3.0 mi South 19.6 mph 25.3 mph N/A   Overcast
11:55 AM 28.2 °F 15.9 °F 24.6 °F 86% 30.02 in 3.0 mi South 17.3 mph 25.3 mph N/A   Overcast
12:15 PM 28.9 °F 16.1 °F 25.2 °F 86% 30.02 in 3.0 mi South 19.6 mph 25.3 mph N/A   Overcast
12:35 PM 29.3 °F 17.7 °F 25.5 °F 86% 30.01 in 3.0 mi South 16.1 mph 25.3 mph N/A   Overcast
12:55 PM 30.0 °F 17.2 °F 26.1 °F 85% 29.99 in 3.0 mi South 20.7 mph 24.2 mph N/A   Overcast
1:15 PM 31.1 °F 19.3 °F 26.8 °F 84% 29.97 in 4.0 mi South 18.4 mph 25.3 mph N/A   Overcast
1:35 PM 32.0 °F 19.8 °F 27.3 °F 83% 29.94 in 4.0 mi South 20.7 mph 27.6 mph N/A   Haze
1:55 PM 32.0 °F 20.1 °F 27.7 °F 84% 29.94 in 4.0 mi South 19.6 mph 24.2 mph N/A   Scattered Clouds
2:15 PM 32.7 °F 21.8 °F 28.4 °F 84% 29.92 in 5.0 mi South 17.3 mph 27.6 mph N/A   Haze
2:35 PM 33.3 °F 21.8 °F 29.1 °F 85% 29.90 in 5.0 mi South 19.6 mph 25.3 mph N/A   Clear
2:55 PM 33.8 °F 23.9 °F 29.3 °F 84% 29.90 in 5.0 mi South 15.0 mph 20.7 mph N/A   Haze
3:15 PM 34.7 °F 24.7 °F 29.8 °F 82% 29.88 in 5.0 mi South 16.1 mph 24.2 mph N/A   Haze
3:35 PM 34.7 °F 23.7 °F 30.2 °F 84% 29.86 in 5.0 mi South 19.6 mph 24.2 mph N/A   Haze
3:55 PM 36.0 °F 25.6 °F 30.6 °F 81% 29.86 in 7.0 mi South 18.4 mph - N/A   Clear
4:15 PM 36.5 °F 28.2 °F 30.7 °F 80% 29.85 in 7.0 mi South 12.7 mph - N/A   Clear
4:35 PM 36.5 °F 27.4 °F 30.7 °F 80% 29.85 in 7.0 mi South 15.0 mph - N/A   Clear
4:55 PM 36.5 °F 27.4 °F 30.7 °F 80% 29.84 in 7.0 mi South 15.0 mph - N/A   Clear
5:15 PM 36.1 °F 26.9 °F 30.6 °F 80% 29.84 in 7.0 mi South 15.0 mph 23.0 mph N/A   Clear
5:35 PM 36.0 °F 26.0 °F 30.2 °F 80% 29.84 in 7.0 mi South 17.3 mph - N/A   Clear
5:55 PM 35.6 °F 26.2 °F 30.2 °F 81% 29.83 in 7.0 mi South 15.0 mph - N/A   Clear
6:15 PM 35.1 °F 25.9 °F 30.0 °F 82% 29.83 in 7.0 mi South 13.8 mph - N/A   Clear
6:35 PM 34.7 °F 25.9 °F 29.8 °F 82% 29.84 in 7.0 mi South 12.7 mph - N/A   Clear
6:55 PM 34.0 °F 24.6 °F 29.7 °F 84% 29.83 in 7.0 mi South 13.8 mph 17.3 mph N/A   Clear
7:15 PM 34.0 °F 25.0 °F 30.0 °F 85% 29.84 in 7.0 mi South 12.7 mph - N/A   Clear
7:35 PM 33.8 °F 24.8 °F 29.8 °F 85% 29.83 in 7.0 mi South 12.7 mph 17.3 mph N/A   Clear
7:55 PM 33.8 °F 24.3 °F 29.8 °F 85% 29.83 in 7.0 mi South 13.8 mph - N/A   Clear
8:15 PM 34.0 °F 24.6 °F 30.6 °F 87% 29.83 in 7.0 mi South 13.8 mph 20.7 mph N/A   Clear
8:35 PM 34.0 °F 25.5 °F 30.7 °F 88% 29.83 in 5.0 mi South 11.5 mph - N/A   Clear
8:55 PM 34.0 °F - 31.1 °F 89% 29.82 in 5.0 mi Calm Calm - N/A   Clear
9:15 PM 33.8 °F 25.3 °F 31.1 °F 90% 29.82 in 5.0 mi South 11.5 mph - N/A   Clear
9:35 PM 33.6 °F 25.6 °F 30.7 °F 89% 29.82 in 5.0 mi South 10.4 mph - N/A   Clear
9:55 PM 33.3 °F 25.7 °F 30.6 °F 90% 29.83 in 5.0 mi South 9.2 mph - N/A   Clear
10:15 PM 32.5 °F 24.2 °F 30.0 °F 90% 29.82 in 5.0 mi South 10.4 mph - N/A   Clear
10:35 PM 32.0 °F 24.2 °F 30.2 °F 93% 29.80 in 5.0 mi South 9.2 mph - N/A   Clear
10:55 PM 32.7 °F 24.5 °F 30.9 °F 93% 29.80 in 5.0 mi South 10.4 mph - N/A   Clear
11:15 PM 32.9 °F 24.7 °F 31.1 °F 93% 29.79 in 5.0 mi South 10.4 mph - N/A   Clear
11:35 PM 32.9 °F 25.3 °F 31.1 °F 93% 29.78 in 5.0 mi South 9.2 mph - N/A   Clear
11:55 PM 33.1 °F 23.9 °F 31.1 °F 92% 29.77 in 5.0 mi South 12.7 mph - N/A   Clear